Location: Gwatt
(46.7204°N, 7.6223°E)
Time: 20:33:42
(UTC+00:00)

ISS - Visible Passes

Search period start: 30 November 2020 00:00
Search period end: 10 December 2020 00:00
Orbit: 418 x 420 km, 51.6° (Epoch: 01 December)

Date Brightness Start Highest point End Pass type
(mag) Time Alt. Az. Time Alt. Az. Time Alt. Az.
30 Nov -2.8 17:14:40 10° WNW 17:17:47 34° N 17:18:36 29° NNE visible
01 Dec -2.8 16:26:58 10° WNW 16:30:05 34° N 16:32:58 12° ENE visible
01 Dec -2.0 18:04:02 10° WNW 18:05:55 28° NW 18:05:55 28° NW visible
02 Dec -3.1 17:16:27 10° WNW 17:19:40 40° NNE 17:20:20 36° NE visible
02 Dec -0.2 18:53:16 10° WNW 18:53:17 10° WNW 18:53:17 10° WNW visible
03 Dec -2.9 16:28:49 10° WNW 16:31:58 36° N 16:34:48 12° ENE visible
03 Dec -2.3 18:05:39 10° WNW 18:07:46 35° WNW 18:07:46 35° WNW visible
04 Dec -3.8 17:18:03 10° WNW 17:21:25 65° NNE 17:22:19 43° E visible
04 Dec -0.2 18:55:11 10° W 18:55:18 11° W 18:55:18 11° W visible
05 Dec -3.4 16:30:28 10° WNW 16:33:45 49° NNE 16:37:00 10° E visible
05 Dec -2.2 18:07:21 10° WNW 18:10:00 36° WSW 18:10:00 36° WSW visible
06 Dec -3.3 17:19:39 10° WNW 17:22:59 60° SSW 17:24:52 23° SE visible
07 Dec -3.8 16:32:00 10° WNW 16:35:23 90° SW 16:38:44 10° ESE visible
07 Dec -1.1 18:09:34 10° W 18:11:47 16° SW 18:13:01 14° SSW visible
08 Dec -1.5 17:21:29 10° W 17:24:19 25° SW 17:27:08 10° SSE visible
09 Dec -2.2 16:33:37 10° WNW 16:36:47 39° SW 16:39:56 10° SE visible
